Cadjehoun Airport

Jump to: basic info | weather | frequencies | runways | comments

Related pages: nearby airports | nearby navaids | notams | map

Basic information (top)

Codes: COO DBBB
Location: lon 6.357230, lat 2.384350, elev 19 ft / 6 m msl
Status: medium_airport
Scheduled airline service: yes
Links: Wikipedia Mobile

Weather (top)

Current conditions (rec'd 2014/09/16 23:00Z):

DBBB 162300Z 23008KT 9999 SCT010 BKN040 25/25 Q1013 NOSIG

Airport forecast (rec'd 2014/09/16 12:00Z):

TAF DBBB 161100Z 1612/1718 22012KT 9999 SCT012 
      TEMPO 1616/1622 TS SCT013 FEW023CB 
      TEMPO 1700/1708 TS BKN008 FEW023CB PROB30 1701/1707 06020G35KT 3000 TSRA 
      TEMPO 1714/1718 TS SCT013 FEW023CB

Frequencies (top)

Verify before use: may be inaccurate or out of date.

A/G: 658.6 MHz (A/G VOICE RDO)
APP: 125.9 MHz (APP)
TWR: 125.9 MHz (TWR)

Runways (top)

06/24: 7,874 x 148 ft (2,400 x 45 m) — paved — lighted — threshold 06 displaced 125 ft (38 m)

Latest comments (top)

No comments yet for Cadjehoun Airport

More... (top)

See also NOTAMs and nearby airports and navaids, or visit the Cadjehoun Airport page at the main OurAirports website..